Regional Weather Roundup
Issued by NWS

Home | Current Version | Previous Version | Graphics & Text | Print | Product List | Glossary On
Versions: 1 2 3 4 5 6 7 8 9 10 11 12 13 14 15 16 17 18 19 20 21 22 23 24 25 26 27 28 29 30 31 32 33 34 35 36 37 38 39 40 41 42 43 44 45 46 47 48 49 50
000
ASUS44 KMEG 281900
RWRTN
TENNESSEE HOURLY STATE WEATHER ROUNDUP
NATIONAL WEATHER SERVICE MEMPHIS TN
100 PM CST WED JAN 28 2015

TNZ002-004-019-021-049-052-054-088>092-282000-
WEST TENNESSEE

CITY           SKY/WX    TMP DP  RH WIND       PRES   REMARKS
MEMPHIS INTL   MOSUNNY   55  30  38 SE6       30.23F
NWS MEMPHIS      N/A     55 N/A N/A MISG        N/A
JACKSON        SUNNY     50  27  40 SE7       30.24F
DYERSBURG      SUNNY     48  25  40 SE8       30.26F
UNION CITY     SUNNY     45  30  57 S7        30.23F
PARIS          SUNNY     45  27  49 VRB7      30.24F
LEXINGTON      SUNNY     46  27  46 VRB3      30.24F
SAVANNAH       SUNNY     50  28  43 VRB5      30.26F
$$

TNZ008-025-027-028-033-062-065-066-282000-
NORTH MIDDLE TENNESSEE

CITY           SKY/WX    TMP DP  RH WIND       PRES   REMARKS
NASHVILLE      MOSUNNY   46  23  40 VRB6      30.28F
CLARKSVILLE    SUNNY     45  23  42 SE8       30.26F
COOKEVILLE     SUNNY     45  21  39 S5        30.26F
CROSSVILLE     SUNNY     41  12  30 NE7       30.25F
$$

TNZ061-075-076-078-094-096-097-282000-
SOUTH MIDDLE TENNESSEE

CITY           SKY/WX    TMP DP  RH WIND       PRES   REMARKS
FAYETTEVILLE   SUNNY     46  27  46 MISG      30.26F
TULLAHOMA        N/A     46  18  31 MISG      30.26F VSB 0
WINCHESTER     SUNNY     48  21  34 CALM      30.26F
SHELBYVILLE    SUNNY     46  25  42 VRB3      30.27F
$$

TNZ017-018-042-046-047-282000-
NORTHEAST TENNESSEE

CITY           SKY/WX    TMP DP  RH WIND       PRES   REMARKS
TRI CITIES     SUNNY     35  18  49 VRB3      30.27F
ELIZABETHTON   CLEAR     34  18  51 SW7       30.25F WCI  28
$$

TNZ012-013-036-069-073-074-282000-
CENTRAL EAST TENNESSEE

CITY           SKY/WX    TMP DP  RH WIND       PRES   REMARKS
KNOXVILLE      NOT AVBL
OAK RIDGE      SUNNY     42   8  24 CALM      30.31F
GATLINBURG     CLEAR     39  16  38 W6        30.28F WCI  35
$$

TNZ083-085-099-282000-
SOUTHEAST TENNESSEE

CITY           SKY/WX    TMP DP  RH WIND       PRES   REMARKS
CHATTANOOGA    MOSUNNY   45  17  32 CALM      30.29F
$$

SKY/WX REPORTED AS FAIR MEANS FEW OR NO CLOUDS BELOW
12 THOUSAND FEET.




USA.gov is the U.S. government's official web portal to all federal, state and local government web resources and services.